Terminal Aerodrome Forecast
Issued by NWS

Home | Current Version | Previous Version | Text Only | Print | Product List | Glossary On
Versions: 1 2 3 4 5 6 7 8 9 10 11 12 13 14 15 16 17 18 19 20 21 22 23 24
000
FTPA31 PHFO 260500
TAFKOA
TAF
PHKO 260520Z 2606/2706 12006KT P6SM SCT035 OVC045
     FM262000 25008KT P6SM SCT035 BKN050
     FM270100 22010KT P6SM SCT040 BKN050
     FM270500 VRB03KT P6SM BKN050=

USA.gov is the U.S. government's official web portal to all federal, state and local government web resources and services.